Location: *
(58.4167°N, 22.5000°E)
Time: 21:24:30
(UTC+00:00)

MetOp-A - Pass Details

Date: 22 September 2019
Orbit: 820 x 821 km, 98.6° (Epoch: 19 October)

Event Time Altitude Azimuth Distance (km) Brightness Sun altitude
Exits shadow 18:13:54 13° 152° (SSE) 2,229 5.9 -13.9°
Maximum altitude 18:18:45 75° 69° (ENE) 857 4.1 -14.5°
Drops below altitude 10° 18:24:08 10° 345° (NNW) 2,433 7.2 -15.2°
Sets 18:26:29 0° 344° (NNW) 3,370 8.0 -15.4°
